sat.trackr.live / text

‹ back to catalog

ATHENA EPIC

NORAD 64871 · 2025-154C

PAYLOAD ACTIVE UNKNOWN

§ Identity

Operator
Country
US
Launch date
2025-07-23
Launch site
AFWTR
Launch vehicle
Mass (kg)
RCS (m²)

External: N2YO · Heavens-Above · Gunter

§ Orbital elements

Epoch: 2026-09-21T18:22:31.546560Z

Period
96.36 min
Inclination
97.6572°
Eccentricity
0.0005142
Mean motion
14.94377404 rev/d
Perigee alt
580.7 km
Apogee alt
587.9 km
Semi-major
6,962.4 km
B*
7.3609e-5
RAAN
326.2537°
Arg perigee
286.4347°
Mean anomaly
73.6308°
Rev number
6,343

§ Raw data

ATHENA EPIC1 64871U 25154C   26264.76564290  .00000736  00000+0  73609-4 0  99962 64871  97.6572 326.2537 0005142 286.4347  73.6308 14.94377404 63434

JSON: /api/v1/satellites/64871 · /tle

For live sub-satellite position, see the globe view (requires WebGL).

§ Visibility from observer

Set your observer location to see the next 7 days of passes ≥ 10°. The values pass through the URL so the page stays shareable.

No JS? Fill the form by hand. The geolocation button needs JavaScript.